Location: ????? ????
(37.9717°N, 23.4051°E)
Time: 10:34:05
(UTC+00:00)

Daily predictions for brighter satellites

Satellite Brightness Start Highest point End
(mag) Time Altitude Azimuth Time Altitude Azimuth Time Altitude Azimuth
Milstar 3 4.2 17:15:43 10° SW 17:23:15 41° SSE 17:36:03 10° E
Cosmos 2366 rocket 4.2 17:21:25 10° N 17:27:39 54° E 17:33:49 10° SSE
ADEOS Rocket 3.1 17:22:23 10° S 17:27:53 74° WSW 17:33:25 10° NNW
Resurs 1-3 3.8 17:28:21 10° SSE 17:32:33 51° ENE 17:36:46 10° N
Cosmos 1455 2.1 17:29:53 10° S 17:33:26 86° W 17:37:01 10° N
CZ-4B R/B 3.9 17:28:35 10° SE 17:33:45 38° ENE 17:38:52 10° N
Cosmos 1892 2.9 17:30:41 10° NNW 17:34:13 67° W 17:37:42 10° S
YAOGAN 1 3.3 17:30:03 10° S 17:34:15 57° W 17:38:30 10° NNW
Meteor PRIRODA 4.4 17:34:08 10° S 17:37:28 52° W 17:40:50 10° NNW
Cosmos 1953 3.4 17:35:57 10° SSW 17:39:38 48° W 17:43:21 10° N
Cosmos 1975 Rocket 3.5 17:37:11 10° N 17:41:16 40° E 17:45:19 10° SSE
Cosmos 2218 Rocket 4.1 17:35:29 10° N 17:41:52 68° E 17:48:08 10° SSE
USA 267 4.0 17:36:44 10° NE 17:43:07 57° NW 17:49:28 10° WSW
SPOT 1/Viking Rocket 3.8 17:38:28 10° SSE 17:43:31 53° ENE 17:48:35 10° N
Cosmos 1833 4.2 17:38:14 10° NNW 17:43:52 67° ENE 17:49:25 10° SSE
ADEOS 4.3 17:42:04 10° S 17:47:11 57° W 17:52:19 10° NNW
USA 186 2.4 17:46:24 10° SE 17:49:11 32° ENE 17:51:55 10° N
Okean O Rocket 2.5 17:47:09 10° SE 17:50:55 30° ENE 17:54:44 10° N
Atlas Centaur 2 3.1 17:47:09 10° SW 17:51:48 25° SSE 17:55:03 13° ESE
Cosmos 1825 3.4 17:50:52 10° NNW 17:54:07 40° W 17:57:22 10° SSW
Hubble Space Telescope 2.8 17:52:05 10° SW 17:54:25 15° SSW 17:56:44 10° SSE
SL-27 R/B 3.0 17:51:55 10° N 17:54:26 27° ENE 17:56:01 17° ESE
Cosmos 1782 Rocket 4.0 17:50:09 10° SSW 17:54:28 66° W 17:58:52 10° N
CZ-4 R/B 1.3 17:53:40 10° SSE 17:57:35 90° ESE 18:01:29 10° NNW
NOSS 3-1 (A) 2.8 17:55:52 10° SSW 18:00:34 77° ESE 18:06:04 10° NE
Resurs 01 Rocket 2.0 18:01:31 11° SE 18:05:27 45° ENE 18:09:41 10° N
CZ-4B R/B 4.1 18:03:31 10° SSW 18:06:57 37° W 18:10:18 10° NNW
SJ 16-02 2.4 18:04:33 10° NNW 18:08:42 45° WSW 18:12:48 10° S
USA 229 DEB 4.1 18:04:17 10° S 18:09:26 31° ESE 18:14:56 10° NE
USA 229 4.1 18:04:23 10° S 18:09:33 31° ESE 18:15:02 10° NE
DELTA 2 DEB (DPAF) 3.9 18:08:05 10° NNE 18:12:20 86° E 18:16:34 10° SSW
USA 234 3.6 18:11:15 17° ESE 18:16:16 54° NE 18:22:36 10° NW
USA 281 3.8 18:12:10 17° ESE 18:16:41 40° ENE 18:22:43 10° N
Cosmos 2151 Rocket 3.8 18:18:26 12° SSE 18:22:15 45° E 18:26:28 10° NNE
Tiangong -2.3 18:20:49 10° WSW 18:23:55 86° SSE 18:25:14 31° ENE
OAO 3 Rocket 4.4 18:23:21 10° W 18:27:34 30° SSW 18:29:52 20° SSE
CSL-04 Debris 4.2 18:22:31 10° SSE 18:27:57 90° NE 18:33:26 10° NNW
Cosmos 2227 Rocket 4.3 18:26:58 10° NNE 18:28:39 11° NE 18:30:20 10° ENE
ATLAS 3B R/B 3.4 18:27:26 10° SW 18:34:20 62° NW 18:41:47 10° NNE
Cosmos 1697 Rocket 4.3 18:37:21 17° ENE 18:37:21 17° ENE 18:39:24 10° NE
CSL-04 Rocket 3.7 18:31:12 12° SSE 18:36:26 83° WSW 18:41:56 10° NNW
Cosmos 371 Rocket 3.7 18:36:39 10° N 18:41:15 45° ENE 18:42:31 36° ESE
COSMOS 2455 4.3 18:38:15 10° N 18:42:50 22° NE 18:44:51 19° ENE
Cosmos 1777 Rocket 4.5 18:39:03 10° N 18:44:04 43° ENE 18:45:33 35° ESE
Okean 2 Rocket 3.0 18:40:35 15° S 18:44:16 78° E 18:48:47 10° N
Cosmos 304 Rocket 4.3 18:40:47 10° N 18:45:15 39° ENE 18:46:06 36° E
SPOT 5 3.6 18:46:55 35° ESE 18:48:17 41° ENE 18:53:13 10° N
CZ-4C R/B 4.3 18:47:59 10° N 18:53:42 24° NE 18:57:31 18° ENE
Cosmos 2297 Rocket 3.0 18:52:42 10° N 18:57:50 34° ENE 18:58:46 32° E
Cosmos 1656 3.5 18:53:03 10° SSW 18:58:39 87° ESE 19:04:12 10° NNE
Terra 3.0 19:01:25 26° ENE 19:01:25 26° ENE 19:04:59 10° NNE
BlueWalker 3 3.7 18:57:59 10° W 19:01:24 31° NNW 19:04:51 10° NNE
Cosmos 1503 Rocket 3.9 18:56:18 10° NNW 19:01:41 80° ENE 19:03:17 47° SSE
Cosmos 1354 Rocket 4.0 18:59:18 10° NNW 19:04:35 63° ENE 19:05:35 52° ESE
Iridium 4 Rocket 3.6 19:04:24 44° SSE 19:06:08 69° E 19:11:52 10° N
Cosmos 1241 Rocket 4.5 19:00:57 10° NNW 19:07:15 81° WSW 19:09:45 40° SSE
Okean 1 Rocket 2.9 19:06:58 58° S 19:07:48 86° E 19:12:17 10° N
Sich 1 Rocket 4.2 19:04:11 14° SSW 19:07:53 54° W 19:12:15 10° N
USA 245 4.4 19:09:42 43° ENE 19:09:42 43° ENE 19:14:07 10° N
Okean-O 2.8 19:11:09 48° SSW 19:12:11 67° W 19:16:35 10° NNW
Ariane Rocket 3.8 19:16:23 35° ENE 19:16:23 35° ENE 19:20:33 10° N
Cosmos 1763 Rocket 3.6 19:17:54 54° ENE 19:17:54 54° ENE 19:22:14 10° NNE
Cosmos 1932 4.4 19:13:39 10° NNW 19:19:53 80° WSW 19:21:31 51° SSE
Cosmos 44 3.8 19:18:22 10° SW 19:23:43 67° WNW 19:29:04 10° NNE
Cosmos 2263 Rocket 4.4 19:22:19 10° NNE 19:24:06 11° NE 19:24:25 11° NE
Okean O Rocket 3.8 19:24:20 12° SW 19:27:11 21° W 19:30:33 10° NW
Genesis I 4.4 19:24:36 10° NNW 19:26:55 37° NNW 19:26:55 37° NNW
Cosmos 1605 Rocket 3.9 19:27:20 10° N 19:33:44 75° E 19:34:29 67° SE
Cosmos 540 Rocket 4.4 19:39:04 37° NE 19:39:04 37° NE 19:42:11 10° NNE
Atlas Centaur 2 3.6 19:35:30 10° WSW 19:37:20 19° SW 19:37:20 19° SW
Resurs 01 Rocket 4.3 19:39:42 10° SW 19:42:07 14° W 19:44:31 10° WNW
IRS-1C Rocket 4.4 19:42:38 57° SW 19:43:10 60° WSW 19:48:24 10° NNW
ERS-1 Rocket 3.2 19:51:26 66° NW 19:51:26 66° NW 19:55:49 10° NNW
SPOT 3 Rocket 4.0 19:55:09 57° N 19:55:09 57° N 19:59:20 10° N
CENTAUR R/B 4.2 19:47:47 10° NNW 19:55:12 34° NE 19:57:39 30° ENE
USA 234 3.9 19:58:35 40° SW 19:59:19 41° SW 20:05:26 10° WNW
USA 281 4.3 19:59:02 30° SW 20:01:07 36° WSW 20:07:06 10° NW
Cosmos 1727 Rocket 4.0 20:04:27 70° NNE 20:04:27 70° NNE 20:10:00 10° N
Cosmos 1980 Rocket 3.9 20:13:32 23° NE 20:13:32 23° NE 20:15:34 10° NNE
ATLAS CENTAUR R/B 4.0 20:09:14 10° N 20:09:58 14° N 20:09:58 14° N
Cosmos 2227 Rocket 2.8 20:07:59 10° NNW 20:12:21 53° N 20:12:21 53° N
Cosmos 1697 Rocket 3.3 20:18:57 51° WNW 20:18:57 51° WNW 20:24:25 10° NNE
COSMOS 2455 3.5 20:23:16 10° NNW 20:27:59 52° WNW 20:27:59 52° WNW
Terra 3.9 20:40:08 23° WNW 20:40:08 23° WNW 20:42:36 10° NW
Cosmos 2297 Rocket 3.7 20:36:50 10° NW 20:40:35 29° W 20:40:35 29° W
CZ-4C R/B 3.0 20:35:26 10° NNW 20:42:37 82° NNW 20:42:37 82° NNW
Cosmos 2263 Rocket 3.8 21:03:20 10° NNW 21:06:06 30° NNW 21:06:06 30° NNW
NOSS 3-2 (A) 4.4 21:13:26 10° NNW 21:19:59 60° NNE 21:19:59 60° NNE
SL-16 R/B 4.5 21:41:08 18° NNE 21:41:08 18° NNE 21:42:27 10° NNE
CENTAUR R/B 3.6 21:38:01 10° NW 21:44:48 58° WNW 21:44:48 58° WNW
Cosmos 1980 Rocket 4.5 21:55:14 18° NW 21:55:14 18° NW 21:58:23 10° N
Cosmos 2360 Rocket 4.3 22:51:06 23° N 22:51:06 23° N 22:53:10 10° NNE
Cosmos 2333 Rocket 4.2 23:03:47 24° N 23:03:47 24° N 23:06:01 10° NNE
Cosmos 2322 Rocket 4.3 23:03:59 21° N 23:03:59 21° N 23:06:12 10° N
Cosmos 2219 Rocket 4.2 23:05:42 23° NNE 23:05:42 23° NNE 23:07:43 10° NNE
Lacrosse 5 4.5 23:05:57 17° N 23:05:57 17° N 23:07:25 10° NNE
Resurs 1-4 Rocket 4.1 23:38:01 10° NNE 23:40:30 24° NE 23:40:30 24° NE
CZ-2C R/B 4.3 23:54:39 29° ENE 23:54:39 29° ENE 23:58:49 10° N
